�N����,����,�~����,�C��,���x,�C��,����,���ϕ���,�ő�u�ԕ���,�ő厞����,���˗�,�I�_���x,�n�����x,�ő啗���N��,DTYPE
"21/03/31","00:10",0.0,10.2,67.2,1007.8,308.3,3.0,4.3,342.1,0.00,4.4,130.0,"00:06:32",1
"21/03/31","00:20",0.0,9.9,68.2,1007.8,316.1,3.5,4.3,313.0,0.00,4.4,130.0,"00:19:28",1
"21/03/31","00:30",0.0,9.7,69.2,1007.8,310.9,3.2,4.1,324.0,0.00,4.4,130.0,"00:20:56",1
"21/03/31","00:40",0.0,9.3,70.5,1008.1,309.9,2.8,3.9,325.6,0.00,4.3,130.0,"00:31:36",1
"21/03/31","00:50",0.0,9.1,71.7,1007.8,325.0,2.5,3.6,320.6,0.00,4.3,130.0,"00:49:20",1
"21/03/31","01:00",0.0,9.3,71.7,1008.1,309.4,2.8,4.5,329.0,0.00,4.5,130.0,"00:51:44",1
"21/03/31","01:10",0.0,9.4,71.7,1007.8,320.6,2.7,3.5,322.1,0.00,4.6,130.0,"01:07:44",1
"21/03/31","01:20",0.0,9.3,72.2,1008.3,327.7,3.0,4.5,335.9,0.00,4.6,130.0,"01:18:08",1
"21/03/31","01:30",0.0,9.4,72.3,1008.8,314.2,2.3,3.4,322.7,0.00,4.7,130.0,"01:20:24",1
"21/03/31","01:40",0.0,9.4,72.5,1008.6,332.6,1.7,2.6,306.3,0.00,4.8,130.0,"01:31:36",1
"21/03/31","01:50",0.0,9.2,73.0,1008.3,339.4,1.7,2.7,333.9,0.00,4.7,130.0,"01:44:24",1
"21/03/31","02:00",0.0,8.9,73.9,1008.6,339.4,1.6,2.4,324.2,0.00,4.5,130.0,"01:52:56",1
"21/03/31","02:10",0.0,8.8,74.9,1008.6,334.5,1.8,2.8,317.2,0.00,4.6,130.0,"02:08:00",1
"21/03/31","02:20",0.0,8.9,75.9,1008.6,330.6,1.7,2.8,335.6,0.00,4.9,130.0,"02:11:28",1
"21/03/31","02:30",0.0,8.8,76.7,1008.8,324.6,2.0,2.9,312.4,0.00,5.0,130.0,"02:29:28",1
"21/03/31","02:40",0.0,9.0,77.5,1009.3,316.7,1.8,3.4,319.5,0.00,5.3,130.0,"02:32:48",1
"21/03/31","02:50",0.0,8.9,78.2,1008.6,304.9,1.1,1.9,316.4,0.00,5.4,130.0,"02:45:20",1
"21/03/31","03:00",0.0,8.7,78.9,1009.0,323.4,1.5,2.8,333.8,0.00,5.3,130.0,"02:58:16",1
"21/03/31","03:10",0.0,8.3,79.8,1008.8,324.1,1.7,2.7,319.7,0.00,5.1,130.0,"03:04:00",1
"21/03/31","03:20",0.0,8.2,80.8,1008.6,327.4,1.3,2.4,352.9,0.00,5.1,130.0,"03:11:36",1
"21/03/31","03:30",0.0,7.8,81.6,1008.6,318.3,1.1,2.2,331.8,0.00,4.9,130.0,"03:28:48",1
"21/03/31","03:40",0.0,7.6,82.7,1008.8,327.2,2.0,2.9,327.1,0.00,4.9,130.0,"03:33:04",1
"21/03/31","03:50",0.0,7.8,83.8,1008.6,332.9,1.5,2.1,340.5,0.00,5.3,130.0,"03:48:48",1
"21/03/31","04:00",0.0,7.6,84.4,1008.8,325.6,1.0,2.6,329.6,0.00,5.2,130.0,"03:54:16",1
"21/03/31","04:10",0.0,7.3,85.0,1008.6,310.0,1.6,2.5,310.7,0.00,5.0,130.0,"04:05:04",1
"21/03/31","04:20",0.0,7.1,85.7,1008.6,318.4,1.7,2.5,316.9,0.00,4.9,130.0,"04:12:56",1
"21/03/31","04:30",0.0,6.8,86.3,1008.3,309.3,1.5,2.6,313.4,0.00,4.7,130.0,"04:20:24",1
"21/03/31","04:40",0.0,6.6,87.1,1008.6,328.3,2.0,2.9,318.9,0.00,4.7,130.0,"04:35:04",1
"21/03/31","04:50",0.0,6.8,87.7,1008.8,321.2,2.1,2.7,324.2,0.00,4.9,130.0,"04:42:24",1
"21/03/31","05:00",0.0,6.6,88.3,1009.0,308.9,1.7,2.7,264.6,0.00,4.8,130.0,"04:52:20",1
"21/03/31","05:10",0.0,6.5,88.8,1009.0,324.1,1.8,2.7,346.2,0.00,4.8,130.0,"05:08:36",1
"21/03/31","05:20",0.0,6.5,89.1,1008.8,305.3,1.1,2.0,324.8,0.00,4.9,130.0,"05:14:40",1
"21/03/31","05:30",0.0,6.9,89.5,1008.6,305.7,1.3,3.4,330.2,0.00,5.3,130.0,"05:29:52",1
"21/03/31","05:40",0.0,7.1,89.3,1009.0,323.7,2.3,4.0,306.4,0.00,5.5,130.0,"05:36:00",1
"21/03/31","05:50",0.0,7.2,89.1,1009.5,325.1,2.1,3.1,330.8,0.00,5.6,130.0,"05:44:40",1
"21/03/31","06:00",0.0,7.7,88.9,1009.5,319.6,2.0,3.3,312.5,0.00,6.0,130.0,"05:53:12",1
"21/03/31","06:10",0.0,7.6,88.2,1009.3,332.8,2.1,3.6,333.5,0.00,5.8,130.0,"06:09:36",1
"21/03/31","06:20",0.0,7.2,88.3,1009.7,312.9,2.8,4.1,317.5,0.00,5.4,130.0,"06:16:08",1
"21/03/31","06:30",0.0,7.0,88.4,1009.5,298.5,3.1,4.1,304.0,0.00,5.3,130.0,"06:24:16",1
"21/03/31","06:40",0.0,7.5,88.4,1010.0,317.6,3.6,4.5,320.4,0.01,5.7,130.0,"06:37:04",1
"21/03/31","06:50",0.0,8.1,87.9,1009.7,313.0,3.4,4.7,318.2,0.02,6.3,130.0,"06:49:44",1
"21/03/31","07:00",0.0,8.7,87.0,1010.0,318.6,4.1,5.6,314.2,0.03,6.7,130.0,"06:58:48",1
"21/03/31","07:10",0.0,9.3,85.4,1010.2,328.8,5.2,6.6,330.0,0.05,7.0,130.0,"07:07:52",1
"21/03/31","07:20",0.0,10.0,83.5,1010.2,325.5,3.1,5.0,335.3,0.06,7.4,130.0,"07:13:28",1
"21/03/31","07:30",0.0,10.5,81.3,1010.2,329.9,2.7,4.7,340.0,0.08,7.5,130.0,"07:22:40",1
"21/03/31","07:40",0.0,11.1,78.3,1010.0,326.7,2.8,5.2,325.5,0.11,7.5,130.0,"07:32:56",1
"21/03/31","07:50",0.0,11.5,74.9,1010.2,325.4,3.6,5.5,331.6,0.13,7.2,130.0,"07:45:52",1
"21/03/31","08:00",0.0,12.1,71.7,1010.4,313.8,2.5,4.5,328.5,0.16,7.2,130.0,"07:51:12",1
"21/03/31","08:10",0.0,12.6,68.7,1010.4,293.2,2.2,3.5,327.3,0.18,7.0,130.0,"08:00:24",1
"21/03/31","08:20",0.0,13.2,66.2,1010.2,307.9,2.2,4.0,328.2,0.21,7.1,130.0,"08:14:08",1
"21/03/31","08:30",0.0,13.8,65.1,1010.2,299.4,2.2,4.9,343.7,0.24,7.4,130.0,"08:20:24",1
"21/03/31","08:40",0.0,14.0,60.6,1010.4,330.0,2.7,4.5,326.9,0.27,6.5,130.0,"08:35:36",1
"21/03/31","08:50",0.0,14.3,59.7,1010.2,326.3,3.5,6.5,338.3,0.30,6.6,130.0,"08:42:24",1
"21/03/31","09:00",0.0,14.1,59.2,1010.2,306.1,3.5,6.4,325.4,0.32,6.3,130.0,"08:50:56",1
"21/03/31","09:10",0.0,15.3,54.5,1010.0,326.7,2.2,4.3,327.5,0.35,6.2,130.0,"09:00:40",1
"21/03/31","09:20",0.0,15.5,47.9,1010.0,333.2,3.4,7.5,342.6,0.38,4.6,130.0,"09:18:08",1
"21/03/31","09:30",0.0,16.0,46.8,1010.0,337.8,2.8,7.9,339.1,0.40,4.7,130.0,"09:25:36",1
"21/03/31","09:40",0.0,16.5,45.7,1010.0,342.7,2.6,5.8,329.3,0.42,4.8,130.0,"09:34:16",1
"21/03/31","09:50",0.0,17.0,42.5,1009.5,351.0,2.2,5.0,347.5,0.45,4.2,130.0,"09:43:28",1
"21/03/31","10:00",0.0,17.7,40.6,1009.7,331.0,1.7,5.2,312.7,0.47,4.2,130.0,"09:55:44",1
"21/03/31","10:10",0.0,18.1,40.2,1009.3,345.4,1.7,3.7,338.5,0.49,4.4,130.0,"10:03:20",1
"21/03/31","10:20",0.0,18.3,42.6,1008.8,334.0,2.5,5.5,332.3,0.51,5.4,130.0,"10:16:08",1
"21/03/31","10:30",0.0,18.4,41.5,1008.6,45.0,2.0,6.2,327.4,0.52,5.1,130.0,"10:21:36",1
"21/03/31","10:40",0.0,18.4,40.8,1009.0,53.0,1.6,3.3,111.6,0.54,4.9,130.0,"10:35:52",1
"21/03/31","10:50",0.0,18.8,40.3,1008.6,68.1,1.2,2.8,30.2,0.56,5.1,130.0,"10:40:08",1
"21/03/31","11:00",0.0,19.4,39.4,1008.3,142.6,1.3,3.2,138.6,0.57,5.3,130.0,"10:58:48",1
"21/03/31","11:10",0.0,19.6,39.3,1008.1,180.7,1.3,4.1,170.8,0.58,5.4,130.0,"11:08:48",1
"21/03/31","11:20",0.0,19.8,37.0,1007.8,158.0,1.6,3.5,158.5,0.59,4.7,130.0,"11:10:24",1
"21/03/31","11:30",0.0,20.3,37.2,1007.8,186.5,1.1,3.5,232.3,0.60,5.3,130.0,"11:20:02",1
"21/03/31","11:40",0.0,20.5,36.0,1008.1,241.2,1.5,3.4,216.6,0.60,5.0,130.0,"11:30:40",1
"21/03/31","11:50",0.0,21.3,34.8,1008.1,285.4,0.6,2.5,344.3,0.61,5.2,130.0,"11:47:52",1
"21/03/31","12:00",0.0,20.8,33.2,1007.1,334.0,1.8,5.6,342.4,0.61,4.1,130.0,"11:56:56",1
"21/03/31","12:10",0.0,21.4,36.7,1007.1,110.3,0.8,2.4,127.4,0.61,6.0,130.0,"12:04:32",1
"21/03/31","12:20",0.0,21.7,34.2,1007.1,272.5,1.5,4.0,259.4,0.61,5.3,130.0,"12:16:48",1
"21/03/31","12:30",0.0,21.5,31.0,1007.1,309.2,2.0,5.1,329.1,0.61,3.7,130.0,"12:24:32",1
"21/03/31","12:40",0.0,21.4,29.4,1006.9,12.4,2.0,5.0,345.0,0.61,2.9,130.0,"12:33:36",1
"21/03/31","12:50",0.0,21.9,30.6,1006.7,17.8,1.6,4.7,28.5,0.61,3.9,130.0,"12:49:04",1
"21/03/31","13:00",0.0,22.2,29.4,1006.7,33.0,1.6,4.0,60.6,0.61,3.6,130.0,"12:56:32",1
"21/03/31","13:10",0.0,22.3,30.5,1006.7,79.9,1.3,3.3,127.6,0.60,4.2,130.0,"13:08:08",1
"21/03/31","13:20",0.0,22.5,30.8,1006.2,0.7,1.7,4.3,334.8,0.59,4.5,130.0,"13:10:16",1
"21/03/31","13:30",0.0,22.3,30.2,1006.0,350.1,2.3,4.3,342.6,0.59,4.0,130.0,"13:22:00",1
"21/03/31","13:40",0.0,22.1,30.0,1006.0,337.2,2.3,4.9,342.9,0.57,3.8,130.0,"13:35:12",1
"21/03/31","13:50",0.0,22.3,32.4,1006.2,340.7,2.5,8.2,344.9,0.56,5.0,130.0,"13:40:24",1
"21/03/31","14:00",0.0,22.6,31.2,1006.0,346.9,2.2,5.4,333.2,0.55,4.8,130.0,"13:57:36",1
"21/03/31","14:10",0.0,22.6,30.9,1006.0,334.2,2.7,5.9,330.5,0.53,4.6,130.0,"14:07:28",1
"21/03/31","14:20",0.0,22.4,28.5,1006.2,318.3,2.3,5.2,338.5,0.51,3.3,130.0,"14:17:04",1
"21/03/31","14:30",0.0,22.5,32.1,1006.0,336.2,3.1,5.9,349.9,0.49,5.1,130.0,"14:20:02",1
"21/03/31","14:40",0.0,22.2,31.5,1006.2,341.5,3.6,7.3,333.5,0.48,4.6,130.0,"14:34:32",1
"21/03/31","14:50",0.0,22.1,32.2,1006.4,337.1,4.1,6.7,345.6,0.46,4.8,130.0,"14:47:12",1
"21/03/31","15:00",0.0,21.8,31.8,1006.0,338.1,4.4,7.8,346.2,0.44,4.3,130.0,"14:51:36",1
"21/03/31","15:10",0.0,21.8,31.0,1006.7,341.7,3.6,7.5,340.9,0.41,4.0,130.0,"15:01:52",1
"21/03/31","15:20",0.0,21.3,30.7,1006.4,340.5,4.4,7.7,339.9,0.39,3.4,130.0,"15:14:32",1
"21/03/31","15:30",0.0,21.0,31.2,1006.4,351.0,3.6,6.3,327.7,0.35,3.4,130.0,"15:23:20",1
"21/03/31","15:40",0.0,20.6,33.9,1006.9,350.6,3.9,7.2,340.1,0.33,4.2,130.0,"15:36:08",1
"21/03/31","15:50",0.0,20.3,34.6,1006.9,350.8,3.5,8.1,339.6,0.28,4.2,130.0,"15:49:20",1
"21/03/31","16:00",0.0,19.9,35.8,1007.4,347.4,3.7,6.8,0.1,0.27,4.4,130.0,"15:57:12",1
"21/03/31","16:10",0.0,19.6,35.6,1007.4,346.2,3.6,7.2,347.7,0.25,4.0,130.0,"16:08:56",1
"21/03/31","16:20",0.0,19.4,36.0,1007.6,346.8,3.9,6.5,350.2,0.22,4.0,130.0,"16:16:48",1
"21/03/31","16:30",0.0,18.9,35.4,1007.6,344.4,4.0,7.8,344.7,0.18,3.3,130.0,"16:29:04",1
"21/03/31","16:40",0.0,18.7,35.9,1007.6,343.7,4.1,7.8,332.4,0.16,3.3,130.0,"16:33:28",1
"21/03/31","16:50",0.0,18.5,32.3,1007.8,333.4,5.7,9.0,335.4,0.14,1.7,130.0,"16:41:44",1
"21/03/31","17:00",0.0,18.3,33.5,1007.6,341.2,4.0,7.5,339.7,0.12,2.0,130.0,"16:58:16",1
"21/03/31","17:10",0.0,17.8,36.9,1008.1,333.1,6.2,9.4,321.2,0.09,2.9,130.0,"17:05:44",1
"21/03/31","17:20",0.0,17.3,40.1,1008.1,335.2,6.2,10.2,335.9,0.07,3.7,130.0,"17:19:04",1
"21/03/31","17:30",0.0,16.9,42.3,1008.1,333.5,5.6,8.6,335.2,0.05,4.1,130.0,"17:29:12",1
"21/03/31","17:40",0.0,16.6,43.5,1008.1,332.3,5.9,8.0,341.6,0.04,4.2,130.0,"17:34:56",1
"21/03/31","17:50",0.0,16.2,43.2,1008.6,333.5,5.2,8.9,328.2,0.03,3.7,130.0,"17:48:08",1
"21/03/31","18:00",0.0,15.8,41.8,1008.6,334.1,5.6,10.2,324.2,0.01,2.9,130.0,"17:55:44",1
"21/03/31","18:10",0.0,15.4,41.6,1008.6,334.0,4.9,7.4,340.0,0.00,2.5,130.0,"18:02:02",1
"21/03/31","18:20",0.0,15.0,42.2,1009.0,332.7,5.1,7.9,333.7,0.00,2.3,130.0,"18:14:48",1
"21/03/31","18:30",0.0,14.6,43.3,1009.0,341.1,4.0,8.1,316.6,0.00,2.3,130.0,"18:20:50",1
"21/03/31","18:40",0.0,14.1,45.1,1009.0,342.1,3.6,6.6,319.4,0.00,2.4,130.0,"18:39:22",1
"21/03/31","18:50",0.0,13.6,48.9,1009.3,341.0,3.0,5.2,353.3,0.00,3.1,130.0,"18:40:10",1
"21/03/31","19:00",0.0,13.5,51.0,1009.3,335.1,4.9,7.4,339.8,0.00,3.6,130.0,"18:53:46",1
"21/03/31","19:10",0.0,13.2,53.5,1009.7,331.4,4.0,6.8,325.8,0.00,4.0,130.0,"19:02:16",1
"21/03/31","19:20",0.0,13.0,55.9,1009.5,329.0,3.7,6.5,329.4,0.00,4.5,130.0,"19:13:48",1
"21/03/31","19:30",0.0,12.7,57.8,1010.0,330.2,3.0,7.1,341.6,0.00,4.6,130.0,"19:27:42",1
"21/03/31","19:40",0.0,12.5,59.5,1010.2,315.0,2.6,4.2,321.9,0.00,4.9,130.0,"19:34:16",1
"21/03/31","19:50",0.0,12.5,60.5,1010.2,315.6,3.0,5.4,330.5,0.00,5.1,130.0,"19:43:02",1
"21/03/31","20:00",0.0,12.4,61.4,1010.4,320.7,3.9,5.7,339.8,0.00,5.2,130.0,"19:59:48",1
"21/03/31","20:10",0.0,12.4,61.6,1010.4,317.2,3.7,7.3,320.6,0.00,5.3,130.0,"20:02:32",1
"21/03/31","20:20",0.0,12.2,62.4,1010.7,321.4,3.5,5.5,332.0,0.00,5.3,130.0,"20:15:04",1
"21/03/31","20:30",0.0,12.1,62.6,1011.2,318.0,3.0,5.0,339.5,0.00,5.2,130.0,"20:22:26",1
"21/03/31","20:40",0.0,12.0,63.0,1011.2,303.8,2.0,6.0,334.2,0.00,5.2,130.0,"20:38:58",1
"21/03/31","20:50",0.0,12.0,63.0,1010.9,302.9,2.6,4.7,324.2,0.00,5.2,130.0,"20:40:08",1
"21/03/31","21:00",0.0,11.9,63.1,1011.2,291.3,2.3,4.0,281.5,0.00,5.1,130.0,"20:59:38",1
"21/03/31","21:10",0.0,11.9,63.1,1010.9,305.2,2.8,5.0,339.8,0.00,5.1,130.0,"21:08:08",1
"21/03/31","21:20",0.0,11.7,63.9,1011.4,328.1,2.1,3.5,336.4,0.00,5.1,130.0,"21:14:04",1
"21/03/31","21:30",0.0,11.4,65.2,1011.2,315.3,2.1,4.7,300.8,0.00,5.1,130.0,"21:22:42",1
"21/03/31","21:40",0.0,11.4,65.9,1011.4,332.3,2.3,3.7,333.7,0.00,5.3,130.0,"21:31:22",1
"21/03/31","21:50",0.0,10.8,67.3,1011.4,326.2,2.1,3.3,316.9,0.00,5.0,130.0,"21:48:32",1
"21/03/31","22:00",0.0,10.3,68.6,1011.6,313.5,3.0,3.7,321.2,0.00,4.8,130.0,"21:58:32",1
"21/03/31","22:10",0.0,10.4,69.8,1011.4,326.3,3.7,4.7,329.5,0.00,5.2,130.0,"22:08:32",1
"21/03/31","22:20",0.0,10.7,69.7,1011.6,330.3,4.1,5.2,319.9,0.00,5.4,130.0,"22:15:44",1
"21/03/31","22:30",0.0,10.9,69.1,1011.9,327.1,4.1,5.6,333.8,0.00,5.5,130.0,"22:20:32",1
"21/03/31","22:40",0.0,11.0,68.4,1011.6,329.1,5.0,5.9,321.8,0.00,5.5,130.0,"22:33:52",1
"21/03/31","22:50",0.0,10.8,69.0,1011.6,327.8,4.0,5.7,327.0,0.00,5.4,130.0,"22:42:56",1
"21/03/31","23:00",0.0,10.4,69.8,1012.1,331.2,3.1,4.3,322.4,0.00,5.2,130.0,"22:54:56",1
"21/03/31","23:10",0.0,9.8,71.2,1011.9,324.8,2.6,3.5,333.9,0.00,4.9,130.0,"23:00:48",1
"21/03/31","23:20",0.0,9.6,72.1,1011.6,321.1,2.2,4.0,339.3,0.00,4.9,130.0,"23:10:32",1
"21/03/31","23:30",0.0,9.4,73.1,1011.6,322.0,2.2,2.9,323.1,0.00,4.9,130.0,"23:24:56",1
"21/03/31","23:40",0.0,9.4,74.0,1011.6,323.1,2.7,3.6,321.2,0.00,5.0,130.0,"23:37:52",1
"21/03/31","23:50",0.0,9.6,74.6,1011.9,326.3,3.0,4.2,314.3,0.00,5.4,130.0,"23:42:08",1
"21/03/31","24:00",0.0,10.1,74.5,1012.1,327.7,4.1,6.2,334.7,0.00,5.8,130.0,"23:57:28",1
